Погода в Изюмовке

Россия / Республика Крым     45°02′37″N   35°08′00″E
темп.,
°C
ветер,
м/с
пор.,
м/с
влажн.,
%
обл.,
%
осадки,
мм/ч
давл.,
гПа
погр.,
м
28 февраля, вс
вс2800:00+5ссз7991100 1.1 1018530
03:00+5ссз61087100 1.4 1018660
06:00+4ссз61077100 0.0 1019891
09:00+4ссз6108891 0.1 1020797
12:00+4ссз588274 0.2 1021803
15:00+5ссз588074 0.5 1021772
18:00+4ссз5779100 0.4 1022841
21:00+3ссз488499 0.6 1023652
1 марта, пн
пн100:00+3сз579064 0.1 1024555
03:00+3зсз468681 0.2 1024555
06:00+1зсз238490 0.0 1024136
09:00+3сз367893 0.0 1026533
12:00+5з346133 0.0 10261006
15:00+5с226864 0.1 1027769
18:00+4ссв347699 0.1 1027592
21:00+2с348386 0.1 1029224
2 марта, вт
вт200:00+1ссз23880 0.0 1030153
03:000сз34890 0.0 1030173
06:000сз35860 0.0 1030181
09:00+2сз45780 0.0 1030374
12:00+4сз456222 0.0 1030983
15:00+6з465738 0.0 10291119
18:00+5зюз476641 0.0 1027636
21:00+3з347654 0.0 1027319
3 марта, ср
ср300:00+2з287411 0.0 1025260
03:00+3юз48766 0.0 1024269
06:00+3зюз49813 0.0 1023253
09:00+5сз6108339 0.0 1023665
12:00+4ссз698197 0.0 1024753
15:00+5ссз686396 0.1 10251260
18:00+5с586777 0.0 1026744
21:00+2ссз357839 0.0 1028205
4 марта, чт
чт400:00+1зсз22770 0.0 102876
03:00+2зсз22710 0.0 102852
06:00+1зсз12690 0.0 102842
09:00+4ююз12600 0.0 1028162
12:00+7ююз44560 0.0 10261066
15:00+7ю45584 0.0 1025963
18:00+6юз57680 0.0 1023463
21:00+4ююз610790 0.0 1023475